Flag Weather past 2 weeks in Rustenburg, South Africa

Now
64 °F

Passing clouds.


Feels Like: 64 °F
Forecast: 62 / 86 °F
Wind: 5 mph from South

Location: Lanseria Civ / Mil

Current Time: Nov 28, 2014 at 11:08:51 PM

Latest Report: Nov 28, 2014 at 10:00 PM


Visibility: N/A

Pressure: 30.12 "Hg

Humidity: 60%

Dew point: 50 °F

Location of RustenburgLocation

Historic Weather in Rustenburg — Graph

°F

Rustenburg temperature yesterday

Maximum temperature yesterday: 66 °F (at 10:00 AM)
Minimum temperature yesterday: 59 °F (at 4:00 AM)
Average temperature yesterday: 64 °F

Past Weeks' High & Low Weather Summary

 TemperatureHumidityPressure
High88 °F (Nov 14, 4:00 PM)100% (Nov 15, 9:00 AM)30.39 "Hg (Nov 15, 9:00 AM)
Low50 °F (Nov 18, 3:00 AM)21% (Nov 14, 4:00 PM)30.01 "Hg (Nov 20, 5:00 PM)
Average67 °F62%30.17 "Hg
* Reported Nov 13 10:00 PM — Nov 28 10:00 PM, Rustenburg, Weather by CustomWeather, © 2014

Note: Actual official high and low records may vary slightly from our data, if they occured in-between our weather recording intervals... More about our weather records

Advertising

Rustenburg weather history for previous 24 hours

 ConditionsComfort  
Time TempWeatherWind HumidityBarometerVisibility
10:00 PM
Nov 28
64 °FPassing clouds.5 mph60%30.12 "HgN/A
9:00 PM70 °FPassing clouds.5 mph43%30.12 "HgN/A
8:00 PM72 °FClear.No wind38%30.09 "Hg10 mi
7:00 PM75 °FPassing clouds.6 mph31%30.09 "HgN/A
6:00 PM79 °FClear.10 mph24%30.07 "Hg10 mi
5:00 PM81 °FPassing clouds.7 mph26%30.07 "HgN/A
4:00 PM82 °FPassing clouds.14 mph25%30.07 "HgN/A
3:00 PM82 °FPassing clouds.12 mph32%30.09 "HgN/A
2:00 PM81 °FPassing clouds.13 mph30%30.09 "HgN/A
1:00 PM79 °FPassing clouds.15 mph42%30.09 "HgN/A
12:00 PM75 °FPassing clouds.7 mph47%30.09 "HgN/A
11:00 AM73 °FSunny.3 mph47%30.12 "Hg10 mi
10:00 AM73 °FPassing clouds.6 mph53%30.12 "HgN/A
9:00 AM68 °FPassing clouds.6 mph69%30.12 "HgN/A
8:00 AM66 °FSunny.2 mph73%30.12 "Hg10 mi
7:00 AM61 °FSunny.No wind94%30.09 "Hg10 mi
6:00 AM59 °FPassing clouds.5 mph94%30.09 "HgN/A
5:00 AM57 °FCool.No wind100%30.07 "HgN/A
4:00 AM59 °FCool.3 mph94%30.07 "HgN/A
3:00 AM59 °FCool.No wind94%30.04 "HgN/A
2:00 AM59 °FCool.2 mph100%30.04 "HgN/A
1:00 AM59 °FCool.5 mph100%30.07 "HgN/A
12:00 AM61 °FCool.7 mph83%30.07 "HgN/A
11:00 PM
Nov 27
61 °FCool.5 mph83%30.07 "HgN/A
Weather by CustomWeather, © 2014

See weather overviewHow to use our weather pages